BLOCK DM-SL R/B

Satellite information

Favourite Embed

Satellite Type and Status

ROCKET BODYIN ORBIT

Key statistics

Satellite BLOCK DM-SL R/B at a glance.

Uptime

4784

Days in orbit

Revolutions

≈ 2.3

Per day

Orbit

GTO

Geostationary Transfer Orbit

Inclination

0.5

Latest

Satellite identification and parameters

Extended collection of information and parameters for BLOCK DM-SL R/B.

Object identification

Identified? True

Debris? False

Object name: BLOCK DM-SL R/B

International designator: 2012-030B

Object number (NORAD): 38357

Object ID (CCSDS): 38357

Country: SEA LAUNCH DEMO (SEAL)

Current information (Y/N): Y

RCS size: LARGE

Orbital parameters

Period: 639.047 minutes

Inclination: 0.4601 deg

SMA: 24576.242 km

Apoapsis: 35665.151 km

Periapsis: 731.064 km

RAAN: 311.213 deg

Eccentricy: 0.7107288

Argument of periapsis: 316.9526 deg

Mean anomaly: 16.681 deg

Mean motion: 2.25335459 rev/day

Mean motion (dot): -0.00000145 rev/day2

B* drag term: -0.00005372 1/REarth

Two-line elements (TLE)

Creation date: July 6, 2025, 6:05 p.m.

Reference frame: TEME

Reference center: EARTH

Epoch: July 6, 2025, 12:46 p.m. UTC

TLE line 0: 0 BLOCK DM-SL R/B

TLE line 1: 1 38357U 12030B 25187.53255522 -.00000145 00000-0 -53720-4 0 9997

TLE line 2: 2 38357 0.4601 311.2130 7107288 316.9526 16.6810 2.25335459107845

Live tracking on map

Real-time ground track for satellite BLOCK DM-SL R/B.

In-orbit conjunctions

There are no conjunctions computed for BLOCK DM-SL R/B, at the moment. Check back to stay up to date, as we update our databases every day.

Go to all conjunctions

Associated space launch

BLOCK DM-SL R/B was lifted into orbit during the mission ‘Zenit 3SL | Intelsat 19’, on board a Zenit space rocket.

The launch took place on June 1, 2012, 5:22 a.m. from Launch Platform Odyssey.

For more information about the launch, click the button.

Launch to space Zenit 3SL | Intelsat 19
Zenit 3SL | Intelsat 19

Agency: N/A

Status: Launch Successful

Launch date: June 1, 2012, 5:22 a.m. UTC

Rocket: Zenit

Launch pad: Launch Platform Odyssey

Location: Sea Launch

...

Latest news about this satellite

There are no fresh news available about this satellite. Check back as we update our databases every day.


Newsletter sign-up

Weekly statistics, charts and insights to help you stay on top of the space industry.